METEOR 2-11 DEB, 40703

Orbit data source: Space-Track

METEOR 2-11 DEB, 40703 is space debris in LEO originally from a launch on Thu, 05 Jul 1984 UTC launched from the Plesetsk Missile And Space Complex (PKMTR). Debris objects in space refer to the collection of defunct objects orbiting the Earth. Examples of debris include non-operational satellites, rocket bodies, and fragments generated from explosions, collisions, or faulty payload assembly.

Loading next visibility...
Identifier
40703, 1984-072E
Orbit
LEO
Country
Flag of CISCIS
Related business
Manufacturer
Unknown
Mission
Spacecraft
Bus & Motor
Unknown
Mass
Unknown
Launch date (UTC)
1984-07-05 (42 years ago)
Launch vehicle
Unknown
Launch site
Plesetsk Missile And Space Complex (PKMTR)
Object type
Payload
Rocket body
Debris
Shape & HBR
Unknown shape, 0.1 m
Radar Cross Section
Small (<0.1 m²)

Expand to show TLE details & history
Last TLE update: 3 days ago

TLE from 3 days ago
0 METEOR 2-11 DEB
1 40703U 84072E   26059.80384672  .00001458  00000-0  10425-2 0  9997
2 40703  82.5101  97.0717 0002934 176.8177 183.3009 13.96630491554133
Epoch: 2026-02-28T19:17Z
TLE epoch observation values (Epoch: 2026-02-28T19:17:32.356Z)
Latitude
-0.00006°
Longitude
9.06616°
Altitude
910.539 km
Speed
7.396 km/s
True Right ascension
06h 28m 17s
True Declination
0° 00' 00"
Sunlit
Object was in daylight at epoch
Visualization orbit readout
Latitude
Unknown
Longitude
Unknown
Altitude
Unknown
Speed
Unknown
Apparent Right ascension
Unknown
Apparent Declination
Unknown
Sunlit
N/A
Visualization observer readout
Local Sidereal Time
16:10:15
Azimuth
Unknown
Elevation
Unknown
Doppler factor
Unknown
Orbital elements
Apogee altitude
904.759 km
Perigee altitude
900.487 km
Semi-major axis
7,280.76 km
Eccentricity
0.00029
Inclination
82.5101°
RAAN
97.0717°
Arg. of periapsis
176.8177°
True anomaly
183.29896°
Mean anomaly
183.3009°
Eccentric anomaly
183.29993°
Mean motion
3.49364 °/min
Orbital period
103.04 mins
BSTAR
0.0010425
Loading maneuver chart data...
Computing Atmospheric mass density...
Loading historical data...
Loading historical data...
Loading historical data...
Loading historical data...
Loading historical data...
Loading historical data...
Loading historical data...

Documentation

Showing up to 5 results
|